Tracking 19846 objects as of 20-Sep-2019
HD Live streaming from Space Station
objects crossing your sky now

ORBCOMM FM 32

Track ORBCOMM FM 32 now!
10-day predictions
ORBCOMM FM 32 is classified as:


NORAD ID: 25982
Int'l Code: 1999-065C
Perigee: 788.1 km
Apogee: 796.1 km
Inclination: 45.0 °
Period: 100.6 minutes
Semi major axis: 7163 km
RCS: 0.8421 m2 (medium)
Launch date: December 4, 1999
Source: ORBCOMM (ORB)
Launch site: AIR FORCE EASTERN TEST RANGE (AFETR)
aabbcc
Your satellite tracking list
Your tracking list is empty




NASA's NSSDC Master Catalog

Two Line Element Set (TLE):
1 25982U 99065C   19261.46215913 -.00000077  00000-0  23573-4 0  9994
2 25982  45.0172 248.3200 0005612   0.9025 359.1830 14.32036259 33679
Source of the keplerian elements: AFSPC